sat.trackr.live / text

‹ back to catalog

HJS-6D

NORAD 63431 · 2025-067D

PAYLOAD ACTIVE UNKNOWN

§ Identity

Operator
Country
PRC
Launch date
2025-04-01
Launch site
JSC
Launch vehicle
Mass (kg)
RCS (m²)

External: N2YO · Heavens-Above · Gunter

§ Orbital elements

Epoch: 2026-09-21T18:52:17.877792Z

Period
94.78 min
Inclination
55.0001°
Eccentricity
0.0003115
Mean motion
15.19284081 rev/d
Perigee alt
505.9 km
Apogee alt
510.1 km
Semi-major
6,886.1 km
B*
3.7691e-4
RAAN
325.5251°
Arg perigee
173.1734°
Mean anomaly
186.9329°
Rev number
8,261

§ Raw data

HJS-6D1 63431U 25067D   26264.78631803  .00007736  00000+0  37691-3 0  99942 63431  55.0001 325.5251 0003115 173.1734 186.9329 15.19284081 82613

JSON: /api/v1/satellites/63431 · /tle

For live sub-satellite position, see the globe view (requires WebGL).

§ Visibility from observer

Set your observer location to see the next 7 days of passes ≥ 10°. The values pass through the URL so the page stays shareable.

No JS? Fill the form by hand. The geolocation button needs JavaScript.